Location: *
(50.0228°S, 177.2688°W)
Time: 00:27:14
(UTC+00:00)

CZ-4 R/B - Pass Details

Date: 07 April 2020
Orbit: 532 x 598 km, 97.8° (Epoch: 30 May)

Event Time Altitude Azimuth Distance (km) Brightness Sun altitude
Rises 06:19:03 0° 156° (SSE) 2,843 4.7 -9.9°
Reaches altitude 10° 06:21:36 10° 142° (SE) 1,921 3.7 -10.3°
Maximum altitude 06:24:59 24° 87° (E) 1,233 2.5 -10.8°
Drops below altitude 10° 06:28:16 10° 33° (NNE) 1,865 3.7 -11.3°
Sets 06:30:42 0° 18° (NNE) 2,738 4.7 -11.7°
